Weather History for Ahoskie, NC

Change the Weather History Date:

Tuesday, February 26, 2013

  Actual Average (KEMV) Record (KEMV)
Temperature  
Mean Temperature 45 °F -  
Max Temperature 60 °F 52 °F 70 °F (1985)
Min Temperature 30 °F 28 °F 9 °F (1990)
Degree Days  
Heating Degree Days 20    
Moisture  
Dew Point 42 °F    
Average Humidity 88    
Maximum Humidity 93    
Minimum Humidity 82    
Precipitation  
Precipitation 0.75 in - - ()
Sea Level Pressure  
Sea Level Pressure 29.90 in    
Wind  
Wind Speed 4 mph (ENE)    
Max Wind Speed 14 mph    
Max Gust Speed 25 mph    
Visibility 8 miles    
Events Fog , Rain    
Averages and records for this station are not official NWS values.
T = Trace of Precipitation, MM = Missing Value Source: NWS Daily Summary

Daily Weather History Graph

Daily Weather History Graph

Search for Another Location

Airport:

Trip Planner

Search our weather history database for the weather conditions in past years. The results will help you decide how hot, cold, wet, or windy it might be!

Date:

Astronomy

Feb. 26, 2013 Rise Set
Actual Time 6:42 AM EST 6:00 PM EST
Civil Twilight 6:16 AM EST 6:26 PM EST
Nautical Twilight 5:46 AM EST 6:56 PM EST
Astronomical Twilight 5:17 AM EST 7:26 PM EST
Moon 7:11 PM EST (2/26) 6:47 AM EST (2/26)
Length of Visible Light 12h 09m
Length of Day
11h 18m
Full, 99% of the Moon is Illuminated
Feb 26
Full
Mar 4
Last Quarter
Mar 11
New
Mar 19
First Quarter
Mar 27
Full

Hourly Weather History & Observations

Time (EST) Temp. Windchill Dew Point Humidity Pressure Visibility Wind Dir Wind Speed Gust Speed Precip Events Conditions
12:15 AM 30.2 °F - 25.3 °F 82% 30.17 in 10.0 mi Calm Calm - N/A   Clear
12:35 AM 30.2 °F - 25.9 °F 84% 30.19 in 10.0 mi Calm Calm - N/A   Clear
12:55 AM 30.2 °F 26.7 °F 26.4 °F 86% 30.19 in 10.0 mi North 3.5 mph - N/A   Clear
1:15 AM 30.2 °F 26.7 °F 26.6 °F 86% 30.17 in 10.0 mi North 3.5 mph - N/A   Clear
1:35 AM 30.2 °F 25.4 °F 25.7 °F 83% 30.17 in 10.0 mi North 4.6 mph - N/A   Clear
1:55 AM 30.6 °F 25.8 °F 25.9 °F 83% 30.17 in 10.0 mi North 4.6 mph - N/A   Clear
2:15 AM 32.5 °F 27.1 °F 28.0 °F 83% 30.16 in 10.0 mi North 5.8 mph - N/A   Clear
2:35 AM 32.5 °F 29.3 °F 28.0 °F 83% 30.16 in 10.0 mi NNE 3.5 mph - N/A   Clear
2:55 AM 32.5 °F 28.1 °F 27.9 °F 83% 30.15 in 10.0 mi NNE 4.6 mph - N/A   Clear
3:15 AM 32.5 °F 28.1 °F 28.0 °F 83% 30.14 in 10.0 mi NNE 4.6 mph - N/A   Clear
3:35 AM 32.5 °F 29.3 °F 28.0 °F 83% 30.13 in 10.0 mi NNE 3.5 mph - N/A   Clear
3:55 AM 32.5 °F 29.3 °F 28.2 °F 84% 30.13 in 10.0 mi NNE 3.5 mph - N/A   Clear
4:15 AM 32.5 °F 29.3 °F 28.4 °F 85% 30.12 in 10.0 mi NNE 3.5 mph - N/A   Scattered Clouds
4:35 AM 32.5 °F 28.1 °F 28.4 °F 85% 30.11 in 10.0 mi NNE 4.6 mph - N/A   Clear
4:55 AM 32.7 °F 27.3 °F 28.8 °F 85% 30.10 in 10.0 mi NNE 5.8 mph - N/A   Scattered Clouds
5:15 AM 35.1 °F 31.0 °F 30.7 °F 84% 30.12 in 10.0 mi NNE 4.6 mph - N/A   Mostly Cloudy
5:35 AM 35.1 °F 32.2 °F 30.7 °F 84% 30.14 in 10.0 mi NNE 3.5 mph - N/A   Overcast
5:55 AM 35.1 °F 31.0 °F 30.7 °F 84% 30.11 in 10.0 mi NE 4.6 mph - N/A   Overcast
6:15 AM 35.1 °F 30.1 °F 30.9 °F 85% 30.10 in 10.0 mi NNE 5.8 mph - N/A   Overcast
6:35 AM 35.1 °F 30.1 °F 31.1 °F 85% 30.10 in 10.0 mi NNE 5.8 mph - N/A   Overcast
6:55 AM 35.1 °F 31.0 °F 31.1 °F 85% 30.09 in 10.0 mi NNE 4.6 mph - N/A   Overcast
7:15 AM 35.6 °F 32.8 °F 31.8 °F 86% 30.09 in 10.0 mi NE 3.5 mph - N/A   Overcast
7:35 AM 36.5 °F 33.9 °F 32.2 °F 84% 30.09 in 10.0 mi NE 3.5 mph - N/A   Overcast
7:55 AM 37.0 °F 33.3 °F 32.9 °F 85% 30.09 in 10.0 mi ENE 4.6 mph - N/A   Overcast
8:15 AM 37.6 °F 34.0 °F 33.4 °F 85% 30.10 in 10.0 mi NE 4.6 mph - N/A   Overcast
8:35 AM 38.3 °F 33.9 °F 34.2 °F 85% 30.10 in 10.0 mi NE 5.8 mph - N/A Rain Light Rain
8:55 AM 39.2 °F 35.0 °F 35.1 °F 85% 30.08 in 10.0 mi NE 5.8 mph - N/A   Light Drizzle
9:15 AM 40.5 °F 35.8 °F 36.3 °F 85% 30.06 in 10.0 mi NE 6.9 mph - N/A   Scattered Clouds
9:35 AM 42.8 °F 38.6 °F 38.3 °F 84% 30.06 in 10.0 mi NE 6.9 mph - N/A Rain Light Rain
9:55 AM 45.1 °F 42.0 °F 41.2 °F 86% 30.04 in 10.0 mi NE 5.8 mph - N/A Rain Light Rain
10:15 AM 45.1 °F 42.8 °F 41.9 °F 88% 30.04 in 10.0 mi ENE 4.6 mph - N/A Rain Light Rain
10:35 AM 45.1 °F 43.7 °F 42.1 °F 89% 30.02 in 10.0 mi NE 3.5 mph - 0.01 in Rain Rain
10:55 AM 45.1 °F 41.4 °F 42.1 °F 89% 30.01 in 7.0 mi ENE 6.9 mph - 0.03 in Rain Rain
11:15 AM 45.1 °F 42.0 °F 42.3 °F 90% 29.98 in 10.0 mi ENE 5.8 mph - 0.01 in Rain Light Rain
11:35 AM 46.2 °F 44.1 °F 43.2 °F 89% 29.96 in 10.0 mi ENE 4.6 mph - 0.02 in Rain Light Rain
11:55 AM 50.0 °F - 47.1 °F 90% 29.96 in 10.0 mi East 8.1 mph - 0.03 in Rain Light Rain
12:15 PM 50.0 °F - 46.9 °F 89% 29.93 in 10.0 mi East 8.1 mph - 0.01 in Rain Light Rain
12:35 PM 50.0 °F - 47.3 °F 90% 29.92 in 10.0 mi East 5.8 mph - 0.02 in Rain Light Rain
12:55 PM 50.0 °F - 47.3 °F 90% 29.91 in 7.0 mi East 8.1 mph - 0.04 in Rain Rain
1:15 PM 50.0 °F - 47.3 °F 90% 29.89 in 5.0 mi East 6.9 mph - 0.03 in Rain Rain
1:35 PM 50.0 °F - 47.3 °F 90% 29.88 in 7.0 mi East 6.9 mph - 0.07 in Rain Rain
1:55 PM 50.0 °F - 47.3 °F 90% 29.86 in 4.0 mi East 11.5 mph 17.3 mph 0.13 in Rain Rain
2:15 PM 50.0 °F - 47.5 °F 91% 29.84 in 5.0 mi East 13.8 mph 21.9 mph 0.04 in Rain Rain
2:35 PM 51.4 °F - 48.9 °F 91% 29.81 in 5.0 mi East 10.4 mph 17.3 mph 0.08 in Rain Rain
2:55 PM 52.7 °F - 50.0 °F 91% 29.80 in 7.0 mi East 9.2 mph 19.6 mph 0.09 in Rain Light Rain
3:15 PM 52.7 °F - 50.0 °F 91% 29.78 in 7.0 mi East 11.5 mph 18.4 mph 0.01 in Rain Rain
3:35 PM 52.7 °F - 50.0 °F 91% 29.74 in 7.0 mi East 12.7 mph 25.3 mph 0.04 in Rain Light Rain
3:55 PM 52.7 °F - 50.0 °F 91% 29.72 in 5.0 mi ESE 9.2 mph 23.0 mph 0.09 in Rain Rain
4:15 PM 52.7 °F - 50.0 °F 91% 29.69 in 2.5 mi East 11.5 mph 24.2 mph 0.12 in Rain Rain
4:35 PM 52.7 °F - 50.0 °F 91% 29.68 in 4.0 mi East 8.1 mph 21.9 mph 0.20 in Rain Rain
4:55 PM 53.2 °F - 50.7 °F 91% 29.67 in 4.0 mi East 8.1 mph 17.3 mph 0.23 in Rain Rain
5:15 PM 54.1 °F - 51.6 °F 91% 29.66 in 5.0 mi East 9.2 mph 20.7 mph 0.02 in Rain Light Rain
5:35 PM 55.0 °F - 52.7 °F 92% 29.64 in 10.0 mi ESE 6.9 mph 16.1 mph 0.03 in Rain Rain
5:55 PM 55.0 °F - 52.7 °F 92% 29.63 in 5.0 mi ESE 6.9 mph - 0.07 in Rain Heavy Rain
6:15 PM 55.0 °F - 52.7 °F 92% 29.62 in 7.0 mi ESE 8.1 mph - 0.03 in Rain Rain
6:35 PM 55.0 °F - 52.7 °F 92% 29.61 in 10.0 mi ESE 5.8 mph - 0.04 in Rain Light Rain
7:15 PM 57.6 °F - 55.4 °F 92% 29.60 in 10.0 mi SE 4.6 mph - N/A   Unknown
7:35 PM 57.6 °F - 55.4 °F 92% 29.60 in 10.0 mi ESE 4.6 mph - N/A   Overcast
7:55 PM 57.6 °F - 55.4 °F 92% 29.59 in 10.0 mi SE 4.6 mph - N/A   Overcast
8:15 PM 57.2 °F - 54.9 °F 92% 29.60 in 7.0 mi Calm Calm - N/A   Overcast
8:35 PM 57.9 °F - 55.8 °F 92% 29.59 in 3.0 mi Calm Calm - N/A   Overcast
8:55 PM 59.0 °F - 56.5 °F 91% 29.59 in 0.5 mi SSE 3.5 mph - N/A Fog Fog
9:15 PM 58.1 °F - 55.8 °F 92% 29.59 in 0.5 mi South 3.5 mph - N/A Fog Fog
9:35 PM 57.7 °F - 55.4 °F 92% 29.58 in 0.2 mi SSE 5.8 mph - N/A Fog Fog
9:55 PM 59.9 °F - 57.9 °F 93% 29.58 in 0.5 mi Calm Calm - N/A Fog Fog
10:15 PM 58.6 °F - 56.5 °F 93% 29.58 in 0.8 mi Calm Calm - N/A   Mostly Cloudy
10:35 PM 60.1 °F - 58.1 °F 93% 29.59 in 5.0 mi Calm Calm - N/A   Mostly Cloudy
10:55 PM 58.1 °F - 56.1 °F 93% 29.59 in 10.0 mi Calm Calm - N/A   Overcast
11:15 PM 58.1 °F - 55.8 °F 92% 29.60 in 10.0 mi Calm Calm - N/A   Overcast
11:35 PM 57.6 °F - 55.4 °F 92% 29.60 in 10.0 mi Calm Calm - N/A   Mostly Cloudy
11:55 PM 56.3 °F - 53.8 °F 91% 29.60 in 10.0 mi Calm Calm - N/A   Scattered Clouds